SUPERVIEW NEO-2 05

导读

SUPERVIEW NEO-2 05(NORAD编号68377)是中国四维SuperView Neo-2星座中的合成孔径雷达(SAR)卫星,于2026年3月成功发射入轨。该卫星具备生产高精度数字高程模型、雷达正射影像及形变监测产品的能力,可实现毫米级地形变化监测,能应用于山体滑坡、地面沉降等地质灾害预警。其入轨进一步提升了SuperView星座全球任意地点每日重访观测能力,作为商业雷达遥感卫星,填补了国内商业雷达遥感领域的市场空白,与光学遥感形成互补,为对地观测提供多维度数据支撑。

Basic Information
目录编号:
68377
目录名称:
SUPERVIEW NEO-2 05
国际标识:
2026-062A
轨道中心:
EARTH
卫星名称:
SUPERVIEW NEO-2 05
卫星全名:
SUPERVIEW NEO-2 05
卫星状态:
在轨 (已飞行164 天)
发射日期:
2026-03-25 UTC
国别 :
中国 (CN)
星等 :
--
Orbit Information
数据来源 国际轨道数据 AOE轨道数据
星历时间 2026-09-02T18:49:09+0800
3天前
查看轨道信息
2026-09-02T17:00:00+0800
3天前
查看轨道信息
半长轴 6884.826km 6884.829km
偏心率 0.0001633 0.0001482
轨道倾角 97.440° 97.440°
近地点辐角 88.754° 98.442°
升交点赤经 251.661° 251.592°
平近点角 271.388° 207.231°
近地点 505.564km 505.671km
远地点 507.814km 507.713km
周期 94.754分钟 94.754分钟
每日圈数 15.197193 15.197183
Detailed Information
使用方式:
暂无
2D Orbit Map
3D Orbit Map
Orbit Altitude Analysis Chart
Orbit Inclination Analysis Chart
Orbit Comprehensive Analysis Chart
View Comprehensive Chart
Conjunction Data List
Event ID Objects TCA Miss Dist (km) Collision Risk Probability Collision Risk Index (CRI) Action
CDM_260905-140106-837706-863022
STPSAT-7 (68630)
2026-09-05T
14:01:10+0000
1.532 km
极远距离
3.338184E-6 低风险 0.45
CDM_260904-125401-895806-837725
2026-09-04T
12:54:41+0000
2.407 km
极远距离
1.913519E-6 低风险 0.41
CDM_260905-150206-675406-837722
2026-09-05T
15:02:40+0000
2.569 km
极远距离
1.186129E-6 低风险 0.36